GW2523 Weather Reports


time (UTC)temp
F
wind
direction
speed
knots
gust
knots
rain 1hr
in
rain 24hr
in
rain mn
in
humidity
%
barometer
mb
20260902060010 56 257 5.2 9.6 0.00 0.24 0.00 62 1017.2
20260902054517 55 245 4.3 8.7 0.00 0.24 0.00 60 1017.2
20260902053004 55 273 5.2 8.7 0.00 0.24 0.00 59 1017.2
20260902051503 54 241 4.3 8.7 0.00 0.24 0.00 61 1017.1
20260902050058 54 267 3.5 7.0 0.00 0.24 0.00 63 1016.9
20260902044555 54 262 3.5 7.0 0.00 0.24 0.00 65 1016.9
20260902043054 54 271 2.6 6.1 0.00 0.24 0.00 66 1016.7
20260902041603 54 250 3.5 6.1 0.00 0.24 0.00 67 1016.7
20260902040045 54 248 3.5 6.1 0.00 0.24 0.00 68 1016.5
20260902034544 54 259 2.6 5.2 0.00 0.24 0.00 70 1016.4
20260902033049 54 255 2.6 4.3 0.00 0.24 0.00 71 1016.2
20260902031539 54 244 2.6 6.1 0.00 0.24 0.00 73 1016.1
20260902030045 55 251 2.6 6.1 0.00 0.24 0.00 74 1016.2
20260902024538 55 257 1.7 3.5 0.00 0.24 0.00 75 1016.4
20260902023043 55 242 2.6 6.1 0.00 0.24 0.00 76 1016.3
20260902021542 55 271 3.5 6.1 0.00 0.24 0.00 77 1016.4
20260902020035 55 270 2.6 6.1 0.00 0.24 0.00 78 1016.4
20260902014529 55 254 3.5 7.0 0.00 0.24 0.00 80 1016.3
20260902013026 55 266 2.6 5.2 0.00 0.24 0.00 80 1016.2
20260902011525 56 263 2.6 6.1 0.00 0.24 0.00 80 1016.1
20260902010023 56 255 2.6 6.1 0.00 0.24 0.00 79 1016.2
20260902004522 56 273 1.7 5.2 0.00 0.24 0.00 79 1016.1
20260902003022 56 258 1.7 3.5 0.00 0.24 0.00 80 1016.1
20260902001519 56 264 1.7 5.2 0.00 0.24 0.00 81 1016.1
20260902000017 56 269 2.6 7.0 0.00 0.24 0.00 82 1016.1
20260901234515 57 256 4.3 7.8 0.00 0.37 0.00 82 1016.1
20260901233015 57 257 2.6 7.8 0.00 0.37 0.00 82 1016.1
20260901231511 57 262 3.5 8.7 0.00 0.37 0.00 82 1016.0
20260901230012 57 240 6.1 11.3 0.00 0.37 0.00 83 1016.1
20260901224507 58 263 4.3 9.6 0.00 0.39 0.00 82 1016.1
20260901223006 58 271 3.5 9.6 0.00 0.39 0.00 82 1016.1
20260901221607 58 273 4.3 10.4 0.00 0.39 0.00 82 1016.0
20260901220125 59 236 5.2 12.2 0.00 0.39 0.00 82 1015.9
20260901214555 59 269 4.3 10.4 0.00 0.39 0.39 82 1015.8
20260901213114 59 302 5.2 10.4 0.00 0.39 0.39 81 1015.7
20260901211555 59 277 7.0 12.2 0.00 0.39 0.39 81 1015.8
20260901210101 59 278 4.3 8.7 0.00 0.39 0.39 80 1015.7
20260901204555 59 264 5.2 9.6 0.00 0.39 0.39 80 1015.6
20260901203101 59 228 5.2 9.6 0.00 0.39 0.39 80 1015.6
20260901201549 59 264 4.3 8.7 0.00 0.39 0.39 80 1015.5
20260901200049 59 256 7.0 11.3 0.00 0.39 0.39 80 1015.5
20260901194551 59 257 3.5 8.7 0.00 0.39 0.39 78 1015.4
20260901193052 59 254 3.5 8.7 0.00 0.39 0.39 77 1015.4
20260901191544 59 301 4.3 9.6 0.00 0.39 0.39 79 1015.3
20260901190044 59 240 3.5 9.6 0.00 0.39 0.39 79 1015.2
20260901184542 59 279 4.3 7.8 0.00 0.50 0.39 79 1015.1
20260901183047 59 290 5.2 8.7 0.00 0.50 0.39 78 1015.0
20260901181538 59 268 4.3 7.8 0.00 0.50 0.39 74 1014.8
20260901180038 59 284 2.6 6.1 0.00 0.50 0.39 72 1014.6
20260901174537 59 281 2.6 6.1 0.01 0.50 0.39 70 1014.5
20260901173050 59 276 2.6 5.2 0.01 0.50 0.39 68 1014.4
20260901171538 59 269 4.3 7.8 0.21 0.50 0.39 69 1014.6
20260901170034 59 267 2.6 8.7 0.21 0.50 0.39 71 1014.6
20260901164533 59 287 3.5 7.8 0.21 0.49 0.38 76 1014.6
20260901163132 60 275 4.3 17.4 0.21 0.49 0.38 82 1014.6
20260901161535 64 311 3.5 9.6 0.01 0.28 0.17 80 1014.3
20260901160031 69 311 9.6 16.5 0.01 0.28 0.17 70 1014.2
20260901154526 70 246 3.5 11.3 0.00 0.28 0.17 65 1013.5
20260901153031 70 256 7.0 17.4 0.00 0.28 0.17 64 1013.6
20260901151522 70 255 4.3 17.4 0.00 0.28 0.17 64 1013.5
20260901150018 70 241 11.3 17.4 0.00 0.28 0.17 64 1013.5
20260901144519 70 259 7.8 20.9 0.00 0.28 0.17 63 1013.5
20260901143015 70 249 9.6 22.6 0.00 0.28 0.17 62 1013.3
20260901141544 71 244 11.3 20.9 0.00 0.28 0.17 60 1013.2
20260901140015 70 258 8.7 19.1 0.00 0.28 0.17 62 1013.2
20260901134512 70 302 6.1 12.2 0.00 0.28 0.17 65 1013.3
20260901133010 69 294 7.0 17.4 0.00 0.28 0.17 66 1013.3
20260901131514 70 254 8.7 24.3 0.00 0.28 0.17 66 1013.2
20260901130023 70 244 10.4 18.2 0.00 0.28 0.17 66 1013.1
20260901124507 70 247 12.2 25.2 0.00 0.28 0.17 67 1013.1
20260901123008 68 252 11.3 20.0 0.00 0.28 0.17 74 1013.1
20260901121501 66 240 6.1 13.0 0.00 0.28 0.17 82 1013.4
20260901120103 64 278 7.0 14.8 0.00 0.28 0.17 83 1013.5
20260901114559 63 221 5.2 12.2 0.00 0.28 0.17 83 1013.5
20260901113059 63 269 8.7 25.2 0.00 0.28 0.17 82 1013.6
20260901111556 66 234 7.8 22.6 0.00 0.28 0.17 74 1013.4
20260901110058 67 214 9.6 15.6 0.00 0.28 0.17 74 1013.1
20260901104554 67 259 12.2 19.1 0.00 0.28 0.17 76 1013.1
20260901103047 66 248 4.3 13.0 0.00 0.28 0.17 77 1013.0
20260901101547 65 266 7.8 15.6 0.00 0.28 0.17 79 1013.0
20260901100047 66 250 8.7 14.8 0.00 0.28 0.17 77 1012.8
20260901094549 65 234 7.8 17.4 0.00 0.28 0.17 79 1012.8
20260901093041 65 236 7.0 14.8 0.00 0.28 0.17 81 1012.7
20260901091536 63 254 8.7 14.8 0.00 0.28 0.17 83 1012.7
20260901090034 63 260 10.4 19.1 0.00 0.28 0.17 83 1012.6
20260901084532 63 272 8.7 14.8 0.00 0.28 0.17 84 1012.6
20260901083030 63 269 11.3 20.9 0.00 0.28 0.17 83 1012.5
20260901081525 62 259 8.7 14.8 0.00 0.28 0.17 79 1012.3
20260901080022 61 272 7.0 12.2 0.01 0.28 0.17 72 1012.2
20260901074520 60 250 6.1 9.6 0.02 0.28 0.17 66 1012.1
20260901073018 60 242 6.1 9.6 0.02 0.28 0.17 67 1012.0
20260901071522 59 250 6.1 11.3 0.02 0.28 0.17 71 1011.8
20260901070021 60 238 7.8 14.8 0.02 0.27 0.16 77 1011.7
20260901064515 59 242 5.2 12.2 0.00 0.25 0.14 74 1011.6
20260901063009 59 259 7.8 11.3 0.00 0.25 0.14 71 1011.4
20260901061508 58 265 6.1 9.6 0.00 0.25 0.14 69 1011.3